Tracking 30061 objects as of 9-Dec-2024
HD Live streaming from Space Station
objects crossing your sky now

GSAT0204

Track GSAT0204 now!
GSAT0204 is classified as:


NORAD ID: 40545
Int'l Code: 2015-017B
Perigee: 23,211.8 km
Apogee: 23,246.6 km
Inclination: 56.9 °
Period: 844.7 minutes
Semi major axis: 29600 km
RCS: Unknown
Launch date: March 27, 2015
Source: European Space Agency (ESA)
Launch site: FRENCH GUIANA (FRGUI)

GSAT0203 is a member of European's Galileo navigation satellite constellation.
Your satellite tracking list
Your tracking list is empty




NASA's NSSDC Master Catalog

Two Line Element Set (TLE):
1 40545U 15017B   24342.79924041 -.00000063  00000-0  00000-0 0  9993
2 40545  56.9210 356.7639 0005878 255.6648 104.3114  1.70475522 22760
Source of the keplerian elements: AFSPC